Time,TemperatureF,DewpointF,PressureIn,WindDirection,WindDirectionDegrees,WindSpeedMPH,WindSpeedGustMPH,Humidity,HourlyPrecipIn,Conditions,Clouds,dailyrainin,SoftwareType,DateUTC
2013-06-29 00:00:00,67.3,62.0,29.69,NNW,340,1.0,8.0,83,0.00,,-RA,0.00,VWS V14.01,2013-06-29 05:00:00,
2013-06-29 00:01:00,67.3,62.0,29.69,North,359,0.0,2.0,83,0.00,,CLR,0.00,VWS V14.01,2013-06-29 05:01:00,
2013-06-29 00:06:00,67.2,61.5,29.69,NNE,26,3.0,11.0,82,0.00,,CLR,0.00,VWS V14.01,2013-06-29 05:06:00,
2013-06-29 00:11:00,67.3,62.0,29.69,NE,52,3.0,11.0,83,0.00,,CLR,0.00,VWS V14.01,2013-06-29 05:11:00,
2013-06-29 00:16:00,67.2,61.9,29.69,NE,46,2.0,11.0,83,0.00,,CLR,0.00,VWS V14.01,2013-06-29 05:16:00,
2013-06-29 00:21:00,67.2,61.9,29.69,North,6,2.0,11.0,83,0.00,,CLR,0.00,VWS V14.01,2013-06-29 05:21:00,
2013-06-29 00:26:00,67.1,61.8,29.69,North,9,1.0,11.0,83,0.00,,CLR,0.00,VWS V14.01,2013-06-29 05:26:00,
2013-06-29 00:30:00,67.1,61.8,29.69,North,4,4.0,12.0,83,0.00,,-RA,0.00,VWS V14.01,2013-06-29 05:30:00,
2013-06-29 00:31:00,67.1,61.8,29.70,NNW,348,2.0,4.0,83,0.00,,CLR,0.00,VWS V14.01,2013-06-29 05:31:00,
2013-06-29 00:36:00,67.0,61.7,29.70,NNE,29,2.0,6.0,83,0.00,,CLR,0.00,VWS V14.01,2013-06-29 05:36:00,
2013-06-29 00:41:00,67.0,61.7,29.70,NNE,16,2.0,8.0,83,0.00,,CLR,0.00,VWS V14.01,2013-06-29 05:41:00,
2013-06-29 00:46:00,67.1,61.8,29.70,NNE,17,2.0,8.0,83,0.00,,CLR,0.00,VWS V14.01,2013-06-29 05:46:00,
2013-06-29 00:51:00,67.0,62.0,29.69,NW,316,2.0,8.0,84,0.00,,CLR,0.00,VWS V14.01,2013-06-29 05:51:00,
2013-06-29 00:56:00,66.9,61.9,29.69,NNE,20,2.0,8.0,84,0.00,,CLR,0.00,VWS V14.01,2013-06-29 05:56:00,
2013-06-29 01:00:00,66.8,61.8,29.69,NNW,340,5.0,8.0,84,0.00,,-RA,0.00,VWS V14.01,2013-06-29 06:00:00,
2013-06-29 01:01:00,66.7,61.7,29.69,North,11,1.0,6.0,84,0.00,,CLR,0.00,VWS V14.01,2013-06-29 06:01:00,
2013-06-29 01:06:00,66.6,62.0,29.69,North,351,1.0,6.0,85,0.00,,CLR,0.00,VWS V14.01,2013-06-29 06:06:00,
2013-06-29 01:11:00,66.4,62.1,29.69,North,354,2.0,7.0,86,0.00,,CLR,0.00,VWS V14.01,2013-06-29 06:11:00,
2013-06-29 01:16:00,66.3,62.3,29.69,NNE,15,1.0,7.0,87,0.00,,CLR,0.00,VWS V14.01,2013-06-29 06:16:00,
2013-06-29 01:21:00,66.2,62.2,29.69,North,359,2.0,7.0,87,0.00,,CLR,0.00,VWS V14.01,2013-06-29 06:21:00,
2013-06-29 01:26:00,66.1,62.5,29.69,NNE,19,0.0,7.0,88,0.00,,CLR,0.00,VWS V14.01,2013-06-29 06:26:00,
2013-06-29 01:30:00,66.0,62.3,29.69,NNE,22,2.0,7.0,88,0.00,,-RA,0.00,VWS V14.01,2013-06-29 06:30:00,
2013-06-29 01:31:00,66.0,62.3,29.69,NNE,25,1.0,2.0,88,0.00,,CLR,0.00,VWS V14.01,2013-06-29 06:31:00,
2013-06-29 01:36:00,65.9,62.2,29.69,North,1,2.0,5.0,88,0.00,,CLR,0.00,VWS V14.01,2013-06-29 06:36:00,
2013-06-29 01:41:00,65.8,62.2,29.69,NNE,19,1.0,5.0,88,0.00,,CLR,0.00,VWS V14.01,2013-06-29 06:41:00,
2013-06-29 01:46:00,65.8,62.2,29.69,NNE,16,0.0,6.0,88,0.00,,CLR,0.00,VWS V14.01,2013-06-29 06:46:00,
2013-06-29 01:51:00,65.7,62.0,29.69,NNE,16,3.0,6.0,88,0.00,,CLR,0.00,VWS V14.01,2013-06-29 06:51:00,
2013-06-29 01:56:00,65.7,62.4,29.69,NNE,18,1.0,6.0,89,0.00,,CLR,0.00,VWS V14.01,2013-06-29 06:56:00,
2013-06-29 02:00:00,65.7,62.0,29.69,NNE,12,0.0,6.0,88,0.00,,-RA,0.00,VWS V14.01,2013-06-29 07:00:00,
2013-06-29 02:01:00,65.7,62.0,29.69,North,11,2.0,3.0,88,0.00,,CLR,0.00,VWS V14.01,2013-06-29 07:01:00,
2013-06-29 02:06:00,65.6,62.0,29.69,NNE,26,3.0,4.0,88,0.00,,CLR,0.00,VWS V14.01,2013-06-29 07:06:00,
2013-06-29 02:11:00,65.6,62.0,29.69,North,351,3.0,4.0,88,0.00,,CLR,0.00,VWS V14.01,2013-06-29 07:11:00,
2013-06-29 02:16:00,65.6,62.0,29.69,NNE,29,2.0,8.0,88,0.00,,CLR,0.00,VWS V14.01,2013-06-29 07:16:00,
2013-06-29 02:21:00,65.6,62.0,29.69,NNE,12,1.0,8.0,88,0.00,,CLR,0.00,VWS V14.01,2013-06-29 07:21:00,
2013-06-29 02:26:00,65.4,61.8,29.69,NE,50,1.0,8.0,88,0.00,,CLR,0.00,VWS V14.01,2013-06-29 07:26:00,
2013-06-29 02:30:00,65.4,61.8,29.69,North,5,0.0,8.0,88,0.00,,-RA,0.00,VWS V14.01,2013-06-29 07:30:00,
2013-06-29 02:31:00,65.4,61.8,29.69,North,11,2.0,4.0,88,0.00,,CLR,0.00,VWS V14.01,2013-06-29 07:31:00,
2013-06-29 02:36:00,65.3,61.7,29.69,NE,34,2.0,4.0,88,0.00,,CLR,0.00,VWS V14.01,2013-06-29 07:36:00,
2013-06-29 02:41:00,65.2,61.6,29.69,NNW,341,3.0,5.0,88,0.00,,CLR,0.00,VWS V14.01,2013-06-29 07:41:00,
2013-06-29 02:46:00,65.2,61.6,29.69,NNE,28,4.0,6.0,88,0.00,,CLR,0.00,VWS V14.01,2013-06-29 07:46:00,
2013-06-29 02:51:00,65.1,61.5,29.69,NNE,26,1.0,6.0,88,0.00,,CLR,0.00,VWS V14.01,2013-06-29 07:51:00,
2013-06-29 02:56:00,65.1,61.5,29.68,North,355,4.0,6.0,88,0.00,,CLR,0.00,VWS V14.01,2013-06-29 07:56:00,
2013-06-29 03:00:00,65.1,61.5,29.68,North,9,1.0,8.0,88,0.00,,-RA,0.00,VWS V14.01,2013-06-29 08:00:00,
2013-06-29 03:01:00,65.1,61.5,29.68,North,9,1.0,8.0,88,0.00,,CLR,0.00,VWS V14.01,2013-06-29 08:01:00,
2013-06-29 03:06:00,65.2,61.6,29.68,NNW,337,1.0,7.0,88,0.00,,CLR,0.00,VWS V14.01,2013-06-29 08:06:00,
2013-06-29 03:11:00,65.2,61.6,29.68,NNE,27,3.0,7.0,88,0.00,,CLR,0.00,VWS V14.01,2013-06-29 08:11:00,
2013-06-29 03:16:00,65.3,61.7,29.68,NE,46,3.0,7.0,88,0.00,,CLR,0.00,VWS V14.01,2013-06-29 08:16:00,
2013-06-29 03:21:00,65.3,61.3,29.68,North,354,1.0,7.0,87,0.00,,CLR,0.00,VWS V14.01,2013-06-29 08:21:00,
2013-06-29 03:26:00,65.2,61.6,29.68,NNW,336,0.0,7.0,88,0.00,,CLR,0.00,VWS V14.01,2013-06-29 08:26:00,
2013-06-29 03:30:00,65.2,61.6,29.68,NE,40,2.0,7.0,88,0.00,,-RA,0.00,VWS V14.01,2013-06-29 08:30:00,
2013-06-29 03:31:00,65.2,61.6,29.68,NNE,31,2.0,3.0,88,0.00,,CLR,0.00,VWS V14.01,2013-06-29 08:31:00,
2013-06-29 03:36:00,65.1,61.5,29.69,NNW,342,1.0,6.0,88,0.00,,CLR,0.00,VWS V14.01,2013-06-29 08:36:00,
2013-06-29 03:41:00,65.0,61.4,29.69,NNW,342,3.0,6.0,88,0.00,,CLR,0.00,VWS V14.01,2013-06-29 08:41:00,
2013-06-29 03:46:00,64.9,61.3,29.69,NNE,26,1.0,6.0,88,0.00,,CLR,0.00,VWS V14.01,2013-06-29 08:46:00,
2013-06-29 03:51:00,64.8,61.5,29.69,NNW,343,1.0,6.0,89,0.00,,CLR,0.00,VWS V14.01,2013-06-29 08:51:00,
2013-06-29 03:56:00,64.8,61.5,29.69,North,349,0.0,6.0,89,0.00,,BKN055,0.00,VWS V14.01,2013-06-29 08:56:00,
2013-06-29 04:00:00,64.8,61.5,29.69,North,11,1.0,6.0,89,0.00,,-RA,0.00,VWS V14.01,2013-06-29 09:00:00,
2013-06-29 04:01:00,64.8,61.5,29.69,ENE,57,2.0,4.0,89,0.00,,BKN055,0.00,VWS V14.01,2013-06-29 09:01:00,
2013-06-29 04:06:00,64.9,61.3,29.69,NNE,16,1.0,5.0,88,0.00,,BKN055,0.00,VWS V14.01,2013-06-29 09:06:00,
2013-06-29 04:11:00,64.9,61.3,29.69,North,11,3.0,7.0,88,0.00,,BKN055,0.00,VWS V14.01,2013-06-29 09:11:00,
2013-06-29 04:16:00,64.9,61.3,29.69,NNW,339,2.0,7.0,88,0.00,,BKN055,0.00,VWS V14.01,2013-06-29 09:16:00,
2013-06-29 04:21:00,64.9,61.3,29.69,NE,46,0.0,7.0,88,0.00,,BKN055,0.00,VWS V14.01,2013-06-29 09:21:00,
2013-06-29 04:26:00,65.0,61.4,29.69,North,359,0.0,10.0,88,0.00,,BKN055,0.00,VWS V14.01,2013-06-29 09:26:00,
2013-06-29 04:30:00,64.9,61.3,29.69,NNE,20,3.0,10.0,88,0.00,,-RA,0.00,VWS V14.01,2013-06-29 09:30:00,
2013-06-29 04:31:00,64.9,61.3,29.69,NNE,18,1.0,3.0,88,0.00,,BKN055,0.00,VWS V14.01,2013-06-29 09:31:00,
2013-06-29 04:36:00,65.0,61.4,29.69,NE,36,2.0,8.0,88,0.00,,BKN055,0.00,VWS V14.01,2013-06-29 09:36:00,
2013-06-29 04:41:00,65.0,61.4,29.69,NW,316,3.0,8.0,88,0.00,,BKN055,0.00,VWS V14.01,2013-06-29 09:41:00,
2013-06-29 04:46:00,65.0,61.4,29.69,North,360,2.0,8.0,88,0.00,,BKN055,0.00,VWS V14.01,2013-06-29 09:46:00,
2013-06-29 04:51:00,65.0,61.4,29.69,NNE,13,1.0,8.0,88,0.00,,BKN055,0.00,VWS V14.01,2013-06-29 09:51:00,
2013-06-29 04:56:00,64.9,61.3,29.69,North,11,3.0,10.0,88,0.00,,BKN055,0.00,VWS V14.01,2013-06-29 09:56:00,
2013-06-29 05:00:00,64.8,61.5,29.69,NNE,18,1.0,10.0,89,0.00,,-RA,0.00,VWS V14.01,2013-06-29 10:00:00,
2013-06-29 05:01:00,64.8,61.5,29.69,NNE,21,1.0,1.0,89,0.00,,-RA,0.00,VWS V14.01,2013-06-29 10:01:00,
2013-06-29 05:06:00,64.6,61.3,29.69,North,3,3.0,5.0,89,0.00,,-RA,0.00,VWS V14.01,2013-06-29 10:06:00,
2013-06-29 05:11:00,64.6,61.3,29.69,NW,321,2.0,5.0,89,0.00,,-RA,0.00,VWS V14.01,2013-06-29 10:11:00,
2013-06-29 05:16:00,64.5,61.2,29.69,NNE,23,3.0,5.0,89,0.00,,-RA,0.00,VWS V14.01,2013-06-29 10:16:00,
2013-06-29 05:21:00,64.3,61.0,29.69,North,11,3.0,5.0,89,0.00,,-RA,0.00,VWS V14.01,2013-06-29 10:21:00,
2013-06-29 05:26:00,64.2,60.9,29.69,NE,41,1.0,5.0,89,0.00,,-RA,0.00,VWS V14.01,2013-06-29 10:26:00,
2013-06-29 05:30:00,64.1,60.8,29.69,ENE,78,1.0,5.0,89,0.00,,-RA,0.00,VWS V14.01,2013-06-29 10:30:00,
2013-06-29 05:31:00,64.1,60.8,29.69,NNW,340,3.0,3.0,89,0.00,,-RA,0.00,VWS V14.01,2013-06-29 10:31:00,
2013-06-29 05:36:00,63.9,60.6,29.69,North,6,1.0,4.0,89,0.00,,-RA,0.00,VWS V14.01,2013-06-29 10:36:00,
2013-06-29 05:41:00,63.8,60.8,29.69,NNE,21,1.0,4.0,90,0.00,,-RA,0.00,VWS V14.01,2013-06-29 10:41:00,
2013-06-29 05:46:00,63.6,60.6,29.69,North,8,1.0,6.0,90,0.00,,-RA,0.00,VWS V14.01,2013-06-29 10:46:00,
2013-06-29 05:51:00,63.5,60.5,29.69,NE,56,0.0,6.0,90,0.00,,-RA,0.00,VWS V14.01,2013-06-29 10:51:00,
2013-06-29 05:56:00,63.3,60.3,29.69,NNE,15,6.0,6.0,90,0.00,,-RA,0.00,VWS V14.01,2013-06-29 10:56:00,
2013-06-29 06:00:00,63.3,60.3,29.69,North,5,0.0,7.0,90,0.00,,-RA,0.00,VWS V14.01,2013-06-29 11:00:00,
2013-06-29 06:01:00,63.3,60.3,29.69,North,4,0.0,0.0,90,0.00,,CLR,0.00,VWS V14.01,2013-06-29 11:01:00,
2013-06-29 06:06:00,63.2,60.2,29.69,ENE,66,0.0,4.0,90,0.00,,CLR,0.00,VWS V14.01,2013-06-29 11:06:00,
2013-06-29 06:11:00,63.2,60.2,29.69,NW,315,0.0,4.0,90,0.00,,CLR,0.00,VWS V14.01,2013-06-29 11:11:00,
2013-06-29 06:16:00,63.0,60.0,29.69,NNW,329,2.0,4.0,90,0.00,,CLR,0.00,VWS V14.01,2013-06-29 11:16:00,
2013-06-29 06:21:00,63.0,60.0,29.69,North,356,0.0,4.0,90,0.00,,CLR,0.00,VWS V14.01,2013-06-29 11:21:00,
2013-06-29 06:26:00,63.0,60.3,29.69,NNE,27,0.0,4.0,91,0.00,,CLR,0.00,VWS V14.01,2013-06-29 11:26:00,
2013-06-29 06:30:00,63.0,60.3,29.69,North,6,1.0,4.0,91,0.00,,-RA,0.00,VWS V14.01,2013-06-29 11:30:00,
2013-06-29 06:31:00,63.0,60.3,29.69,NNE,22,0.0,1.0,91,0.00,,CLR,0.00,VWS V14.01,2013-06-29 11:31:00,
2013-06-29 06:36:00,62.9,60.2,29.69,NNW,340,2.0,3.0,91,0.00,,CLR,0.00,VWS V14.01,2013-06-29 11:36:00,
2013-06-29 06:41:00,63.0,60.3,29.69,NNW,340,1.0,3.0,91,0.00,,CLR,0.00,VWS V14.01,2013-06-29 11:41:00,
2013-06-29 06:46:00,63.0,60.3,29.69,North,349,3.0,5.0,91,0.00,,CLR,0.00,VWS V14.01,2013-06-29 11:46:00,
2013-06-29 06:51:00,63.1,60.4,29.69,NW,323,1.0,5.0,91,0.00,,CLR,0.00,VWS V14.01,2013-06-29 11:51:00,
2013-06-29 06:56:00,63.3,60.6,29.69,NW,312,1.0,5.0,91,0.00,,CLR,0.00,VWS V14.01,2013-06-29 11:56:00,
2013-06-29 07:00:00,63.4,60.7,29.69,NNW,346,1.0,5.0,91,0.00,,-RA,0.00,VWS V14.01,2013-06-29 12:00:00,
2013-06-29 07:01:00,63.4,60.7,29.69,North,354,2.0,2.0,91,0.00,,CLR,0.00,VWS V14.01,2013-06-29 12:01:00,
2013-06-29 07:06:00,63.4,60.4,29.69,NNE,18,3.0,3.0,90,0.00,,CLR,0.00,VWS V14.01,2013-06-29 12:06:00,
2013-06-29 07:11:00,63.4,60.4,29.69,NNW,337,0.0,4.0,90,0.00,,CLR,0.00,VWS V14.01,2013-06-29 12:11:00,
2013-06-29 07:16:00,63.3,60.3,29.69,NW,319,4.0,4.0,90,0.00,,CLR,0.00,VWS V14.01,2013-06-29 12:16:00,
2013-06-29 07:21:00,63.3,60.3,29.69,WNW,295,1.0,4.0,90,0.00,,CLR,0.00,VWS V14.01,2013-06-29 12:21:00,
2013-06-29 07:26:00,63.4,60.1,29.69,North,356,2.0,5.0,89,0.00,,CLR,0.00,VWS V14.01,2013-06-29 12:26:00,
2013-06-29 07:30:00,63.5,60.5,29.69,NE,49,2.0,5.0,90,0.00,,-RA,0.00,VWS V14.01,2013-06-29 12:30:00,
2013-06-29 07:31:00,63.5,60.5,29.69,NE,48,1.0,2.0,90,0.00,,CLR,0.00,VWS V14.01,2013-06-29 12:31:00,
2013-06-29 07:36:00,63.7,60.4,29.69,NNW,335,1.0,4.0,89,0.00,,CLR,0.00,VWS V14.01,2013-06-29 12:36:00,
2013-06-29 07:41:00,63.7,60.4,29.69,NE,46,3.0,6.0,89,0.00,,CLR,0.00,VWS V14.01,2013-06-29 12:41:00,
2013-06-29 07:46:00,63.7,60.4,29.69,NE,44,4.0,6.0,89,0.00,,CLR,0.00,VWS V14.01,2013-06-29 12:46:00,
2013-06-29 07:51:00,63.8,60.5,29.69,WNW,298,2.0,7.0,89,0.00,,CLR,0.00,VWS V14.01,2013-06-29 12:51:00,
2013-06-29 07:56:00,63.7,60.7,29.69,ENE,77,2.0,7.0,90,0.04,,CLR,0.04,VWS V14.01,2013-06-29 12:56:00,
2013-06-29 08:00:00,63.3,60.6,29.70,ENE,63,1.0,7.0,91,0.04,,-RA,0.04,VWS V14.01,2013-06-29 13:00:00,
2013-06-29 08:01:00,63.3,60.6,29.69,ENE,68,3.0,4.0,91,0.04,,CLR,0.04,VWS V14.01,2013-06-29 13:01:00,
2013-06-29 08:06:00,63.1,60.7,29.69,NNE,25,1.0,6.0,92,0.04,,-RA,0.04,VWS V14.01,2013-06-29 13:06:00,
2013-06-29 08:11:00,63.0,60.6,29.69,North,356,2.0,7.0,92,0.04,,-RA,0.04,VWS V14.01,2013-06-29 13:11:00,
2013-06-29 08:16:00,62.8,60.8,29.69,NNE,13,3.0,7.0,93,0.06,,-RA,0.06,VWS V14.01,2013-06-29 13:16:00,
2013-06-29 08:21:00,62.6,60.8,29.70,ENE,77,1.0,8.0,94,0.07,,-RA,0.07,VWS V14.01,2013-06-29 13:21:00,
2013-06-29 08:26:00,62.5,60.8,29.69,NNE,26,5.0,8.0,94,0.07,,-RA,0.07,VWS V14.01,2013-06-29 13:26:00,
2013-06-29 08:30:00,62.5,61.0,29.70,NNE,27,3.0,8.0,95,0.07,,-RA,0.07,VWS V14.01,2013-06-29 13:30:00,
2013-06-29 08:31:00,62.5,61.0,29.69,ENE,72,2.0,3.0,95,0.07,,-RA,0.07,VWS V14.01,2013-06-29 13:31:00,
2013-06-29 08:36:00,62.5,61.0,29.70,East,79,2.0,6.0,95,0.07,,-RA,0.07,VWS V14.01,2013-06-29 13:36:00,
2013-06-29 08:41:00,62.7,61.2,29.70,NNE,16,2.0,9.0,95,0.07,,-RA,0.07,VWS V14.01,2013-06-29 13:41:00,
2013-06-29 08:46:00,62.9,61.2,29.70,NNW,333,3.0,11.0,94,0.07,,-RA,0.07,VWS V14.01,2013-06-29 13:46:00,
2013-06-29 08:51:00,63.0,61.2,29.70,NNW,346,3.0,11.0,94,0.07,,OVC017,0.07,VWS V14.01,2013-06-29 13:51:00,
2013-06-29 08:56:00,62.9,61.2,29.70,NE,46,8.0,11.0,94,0.07,,OVC017,0.07,VWS V14.01,2013-06-29 13:56:00,
2013-06-29 09:00:00,62.9,61.2,29.71,North,352,3.0,15.0,94,0.08,,-RA,0.08,VWS V14.01,2013-06-29 14:00:00,
2013-06-29 09:01:00,62.9,61.2,29.71,ENE,64,3.0,6.0,94,0.04,,RA,0.08,VWS V14.01,2013-06-29 14:01:00,
2013-06-29 09:06:00,62.8,61.0,29.71,NNE,16,4.0,13.0,94,0.04,,RA,0.08,VWS V14.01,2013-06-29 14:06:00,
2013-06-29 09:11:00,62.7,60.7,29.71,NE,51,3.0,13.0,93,0.04,,-RA,0.08,VWS V14.01,2013-06-29 14:11:00,
2013-06-29 09:16:00,62.7,60.7,29.71,NNE,27,2.0,2.0,93,0.04,,-RA,0.08,VWS V14.01,2013-06-29 14:16:00,
2013-06-29 09:21:00,62.7,60.3,29.71,NE,44,1.0,11.0,92,0.04,,-RA,0.08,VWS V14.01,2013-06-29 14:21:00,
2013-06-29 09:26:00,62.5,60.2,29.72,NNW,344,5.0,14.0,92,0.04,,-RA,0.08,VWS V14.01,2013-06-29 14:26:00,
2013-06-29 09:30:00,62.6,60.5,29.72,NNE,18,4.0,14.0,93,0.04,,-RA,0.08,VWS V14.01,2013-06-29 14:30:00,
2013-06-29 09:31:00,62.6,60.5,29.72,North,5,1.0,4.0,93,0.01,,-RA,0.08,VWS V14.01,2013-06-29 14:31:00,
2013-06-29 09:36:00,63.0,61.0,29.72,NNW,333,6.0,7.0,93,0.01,,-RA,0.08,VWS V14.01,2013-06-29 14:36:00,
2013-06-29 09:41:00,63.1,61.0,29.72,North,11,2.0,8.0,93,0.01,,-RA,0.08,VWS V14.01,2013-06-29 14:41:00,
2013-06-29 09:46:00,63.2,61.2,29.72,NNW,345,6.0,10.0,93,0.01,,-RA,0.08,VWS V14.01,2013-06-29 14:46:00,
2013-06-29 09:51:00,63.4,60.7,29.72,NNE,29,1.0,10.0,91,0.01,,-RA,0.08,VWS V14.01,2013-06-29 14:51:00,
2013-06-29 09:56:00,63.5,60.8,29.72,North,6,0.0,10.0,91,0.01,,OVC042,0.08,VWS V14.01,2013-06-29 14:56:00,
2013-06-29 10:00:00,63.4,60.7,29.72,NE,44,0.0,10.0,91,0.01,,-RA,0.08,VWS V14.01,2013-06-29 15:00:00,
2013-06-29 10:01:00,63.4,60.7,29.72,NE,43,1.0,2.0,91,0.00,,-RA,0.08,VWS V14.01,2013-06-29 15:01:00,
2013-06-29 10:06:00,63.5,60.8,29.72,NNE,23,5.0,12.0,91,0.00,,-RA,0.08,VWS V14.01,2013-06-29 15:06:00,
2013-06-29 10:11:00,63.7,61.0,29.72,NNW,346,3.0,12.0,91,0.00,,-RA,0.08,VWS V14.01,2013-06-29 15:11:00,
2013-06-29 10:16:00,63.9,60.9,29.72,North,356,7.0,13.0,90,0.00,,-RA,0.08,VWS V14.01,2013-06-29 15:16:00,
2013-06-29 10:26:00,64.1,61.1,29.73,NW,311,7.0,7.0,90,0.00,,-RA,0.08,VWS V14.01,2013-06-29 15:26:00,
2013-06-29 10:30:00,64.0,60.7,29.73,NNE,21,4.0,14.0,89,0.00,,OVC090,0.08,VWS V14.01,2013-06-29 15:30:00,
2013-06-29 10:31:00,64.0,60.7,29.73,NNE,20,0.0,4.0,89,0.00,,-RA,0.08,VWS V14.01,2013-06-29 15:31:00,
2013-06-29 10:36:00,63.7,60.7,29.73,ENE,61,1.0,8.0,90,0.00,,-RA,0.08,VWS V14.01,2013-06-29 15:36:00,
2013-06-29 10:41:00,63.7,61.0,29.73,NNW,335,3.0,10.0,91,0.00,,-RA,0.08,VWS V14.01,2013-06-29 15:41:00,
2013-06-29 10:46:00,63.7,61.0,29.73,NNW,341,6.0,10.0,91,0.00,,-RA,0.08,VWS V14.01,2013-06-29 15:46:00,
2013-06-29 10:51:00,63.7,60.7,29.73,NE,44,1.0,10.0,90,0.00,,-RA,0.08,VWS V14.01,2013-06-29 15:51:00,
2013-06-29 10:56:00,63.8,60.8,29.74,NNW,335,1.0,12.0,90,0.00,,-RA,0.08,VWS V14.01,2013-06-29 15:56:00,
2013-06-29 11:00:00,63.9,60.9,29.74,NE,42,1.0,12.0,90,0.00,,OVC090,0.08,VWS V14.01,2013-06-29 16:00:00,
2013-06-29 11:01:00,63.9,60.9,29.74,NE,38,2.0,2.0,90,0.00,,-RA,0.08,VWS V14.01,2013-06-29 16:01:00,
2013-06-29 11:06:00,64.1,61.4,29.74,NE,44,1.0,4.0,91,0.00,,-RA,0.08,VWS V14.01,2013-06-29 16:06:00,
2013-06-29 11:11:00,64.5,61.5,29.74,NNE,30,0.0,8.0,90,0.00,,-RA,0.08,VWS V14.01,2013-06-29 16:11:00,
2013-06-29 11:16:00,65.0,61.4,29.74,North,352,9.0,10.0,88,0.00,,-RA,0.08,VWS V14.01,2013-06-29 16:16:00,
2013-06-29 11:21:00,65.0,60.4,29.74,NNW,341,5.0,17.0,85,0.00,,-RA,0.08,VWS V14.01,2013-06-29 16:21:00,
2013-06-29 11:26:00,64.8,60.2,29.74,NE,48,12.0,17.0,85,0.00,,-RA,0.08,VWS V14.01,2013-06-29 16:26:00,
2013-06-29 11:30:00,64.7,60.4,29.75,NNW,335,4.0,18.0,86,0.00,,OVC090,0.08,VWS V14.01,2013-06-29 16:30:00,
2013-06-29 11:31:00,64.7,60.4,29.75,NNW,334,5.0,5.0,86,0.00,,-RA,0.08,VWS V14.01,2013-06-29 16:31:00,
2013-06-29 11:36:00,64.8,60.8,29.75,NE,38,7.0,12.0,87,0.00,,-RA,0.08,VWS V14.01,2013-06-29 16:36:00,
2013-06-29 11:41:00,65.0,61.4,29.75,NNE,19,3.0,12.0,88,0.00,,-RA,0.08,VWS V14.01,2013-06-29 16:41:00,
2013-06-29 11:46:00,65.0,61.0,29.75,NNE,30,4.0,12.0,87,0.00,,-RA,0.08,VWS V14.01,2013-06-29 16:46:00,
2013-06-29 11:51:00,64.9,61.3,29.75,NNW,335,5.0,15.0,88,0.00,,-RA,0.08,VWS V14.01,2013-06-29 16:51:00,
2013-06-29 11:56:00,64.7,61.1,29.75,North,5,12.0,15.0,88,0.00,,-RA,0.08,VWS V14.01,2013-06-29 16:56:00,
2013-06-29 12:00:00,64.6,60.3,29.75,East,83,6.0,18.0,86,0.00,,OVC090,0.08,VWS V14.01,2013-06-29 17:00:00,
2013-06-29 12:01:00,64.6,60.3,29.75,NE,46,3.0,4.0,86,0.00,,-RA,0.08,VWS V14.01,2013-06-29 17:01:00,
2013-06-29 12:06:00,65.2,60.9,29.75,NE,53,1.0,13.0,86,0.00,,-RA,0.08,VWS V14.01,2013-06-29 17:06:00,
2013-06-29 12:11:00,65.5,60.9,29.75,North,354,4.0,13.0,85,0.00,,-RA,0.08,VWS V14.01,2013-06-29 17:11:00,
2013-06-29 12:16:00,65.8,61.5,29.75,NNE,29,2.0,13.0,86,0.00,,-RA,0.08,VWS V14.01,2013-06-29 17:16:00,
2013-06-29 12:21:00,66.9,61.6,29.75,North,11,9.0,18.0,83,0.00,,-RA,0.08,VWS V14.01,2013-06-29 17:21:00,
2013-06-29 12:26:00,66.9,61.2,29.76,NNE,33,3.0,18.0,82,0.00,,-RA,0.08,VWS V14.01,2013-06-29 17:26:00,
2013-06-29 12:30:00,66.6,60.9,29.76,NNE,13,3.0,18.0,82,0.00,,OVC090,0.08,VWS V14.01,2013-06-29 17:30:00,
2013-06-29 12:31:00,66.6,60.9,29.76,North,8,2.0,3.0,82,0.00,,-RA,0.08,VWS V14.01,2013-06-29 17:31:00,
2013-06-29 12:36:00,66.4,60.7,29.76,North,356,4.0,16.0,82,0.00,,-RA,0.08,VWS V14.01,2013-06-29 17:36:00,
2013-06-29 12:41:00,66.6,61.3,29.76,NNW,330,0.0,16.0,83,0.00,,-RA,0.08,VWS V14.01,2013-06-29 17:41:00,
2013-06-29 12:46:00,67.4,61.4,29.76,NNE,13,5.0,16.0,81,0.00,,-RA,0.08,VWS V14.01,2013-06-29 17:46:00,
2013-06-29 12:51:00,67.6,60.9,29.76,NE,51,2.0,16.0,79,0.00,,-RA,0.08,VWS V14.01,2013-06-29 17:51:00,
2013-06-29 12:56:00,67.3,60.2,29.76,NE,41,2.0,16.0,78,0.00,,-RA,0.08,VWS V14.01,2013-06-29 17:56:00,
2013-06-29 13:00:00,67.6,60.9,29.76,NNE,23,6.0,16.0,79,0.00,,OVC090,0.08,VWS V14.01,2013-06-29 18:00:00,
2013-06-29 13:01:00,67.7,61.0,29.76,NNE,24,5.0,5.0,79,0.00,,-RA,0.08,VWS V14.01,2013-06-29 18:01:00,
2013-06-29 13:06:00,68.2,60.3,29.77,NNE,20,3.0,8.0,76,0.00,,-RA,0.08,VWS V14.01,2013-06-29 18:06:00,
2013-06-29 13:11:00,68.9,61.0,29.76,ENE,62,3.0,12.0,76,0.00,,-RA,0.08,VWS V14.01,2013-06-29 18:11:00,
2013-06-29 13:16:00,69.3,61.0,29.76,NW,316,3.0,13.0,75,0.00,,-RA,0.08,VWS V14.01,2013-06-29 18:16:00,
2013-06-29 13:21:00,69.7,60.3,29.77,NNW,335,7.0,15.0,72,0.00,,-RA,0.08,VWS V14.01,2013-06-29 18:21:00,
2013-06-29 13:26:00,69.1,59.7,29.77,ENE,65,3.0,15.0,72,0.00,,-RA,0.08,VWS V14.01,2013-06-29 18:26:00,
2013-06-29 13:30:00,69.2,59.4,29.76,West,259,2.0,15.0,71,0.00,,OVC090,0.08,VWS V14.01,2013-06-29 18:30:00,
2013-06-29 13:31:00,69.2,59.4,29.77,ENE,59,2.0,4.0,71,0.00,,-RA,0.08,VWS V14.01,2013-06-29 18:31:00,
2013-06-29 13:36:00,68.8,58.6,29.77,NE,53,3.0,18.0,70,0.00,,-RA,0.08,VWS V14.01,2013-06-29 18:36:00,
2013-06-29 13:41:00,68.5,59.5,29.77,North,6,1.0,18.0,73,0.00,,-RA,0.08,VWS V14.01,2013-06-29 18:41:00,
2013-06-29 13:46:00,68.8,60.6,29.77,NNW,345,6.0,18.0,75,0.00,,-RA,0.08,VWS V14.01,2013-06-29 18:46:00,
2013-06-29 13:51:00,69.2,60.2,29.77,East,82,5.0,18.0,73,0.00,,-RA,0.08,VWS V14.01,2013-06-29 18:51:00,
2013-06-29 13:56:00,69.3,59.1,29.77,NNE,32,12.0,18.0,70,0.00,,-RA,0.08,VWS V14.01,2013-06-29 18:56:00,
2013-06-29 14:00:00,69.0,59.6,29.77,NNW,333,5.0,18.0,72,0.00,,OVC090,0.08,VWS V14.01,2013-06-29 19:00:00,
2013-06-29 14:01:00,69.1,59.7,29.77,NNE,23,2.0,5.0,72,0.00,,-RA,0.08,VWS V14.01,2013-06-29 19:01:00,
2013-06-29 14:06:00,69.4,60.0,29.77,NNE,30,2.0,10.0,72,0.00,,-RA,0.08,VWS V14.01,2013-06-29 19:06:00,
2013-06-29 14:11:00,69.8,59.6,29.78,NNW,347,5.0,13.0,70,0.00,,-RA,0.08,VWS V14.01,2013-06-29 19:11:00,
2013-06-29 14:16:00,70.3,59.7,29.78,NNW,335,2.0,13.0,69,0.00,,-RA,0.08,VWS V14.01,2013-06-29 19:16:00,
2013-06-29 14:21:00,70.6,58.3,29.78,North,352,4.0,16.0,65,0.00,,-RA,0.08,VWS V14.01,2013-06-29 19:21:00,
2013-06-29 14:26:00,71.3,58.5,29.77,NNE,30,2.0,16.0,64,0.00,,-RA,0.08,VWS V14.01,2013-06-29 19:26:00,
2013-06-29 14:30:00,71.1,57.0,29.78,NNE,24,1.0,16.0,61,0.00,,OVC090,0.08,VWS V14.01,2013-06-29 19:30:00,
2013-06-29 14:31:00,71.1,57.0,29.78,North,6,4.0,4.0,61,0.00,,-RA,0.08,VWS V14.01,2013-06-29 19:31:00,
2013-06-29 14:36:00,70.9,56.8,29.78,ENE,63,1.0,8.0,61,0.00,,-RA,0.08,VWS V14.01,2013-06-29 19:36:00,
2013-06-29 14:41:00,71.2,58.8,29.78,NW,322,3.0,15.0,65,0.00,,-RA,0.08,VWS V14.01,2013-06-29 19:41:00,
2013-06-29 14:46:00,70.9,58.1,29.78,NNE,13,5.0,15.0,64,0.00,,-RA,0.08,VWS V14.01,2013-06-29 19:46:00,
2013-06-29 14:51:00,69.7,57.4,29.78,NNW,341,0.0,15.0,65,0.00,,-RA,0.08,VWS V14.01,2013-06-29 19:51:00,
2013-06-29 14:56:00,69.0,57.2,29.79,NE,37,1.0,15.0,66,0.00,,-RA,0.08,VWS V14.01,2013-06-29 19:56:00,
2013-06-29 15:00:00,68.8,57.8,29.79,NE,55,3.0,15.0,68,0.00,,OVC090,0.08,VWS V14.01,2013-06-29 20:00:00,
2013-06-29 15:01:00,68.8,57.8,29.79,East,95,1.0,5.0,68,0.00,,-RA,0.08,VWS V14.01,2013-06-29 20:01:00,
2013-06-29 15:06:00,69.2,57.8,29.79,NNE,26,9.0,10.0,67,0.00,,-RA,0.08,VWS V14.01,2013-06-29 20:06:00,
2013-06-29 15:11:00,69.7,57.0,29.80,SSE,157,2.0,10.0,64,0.00,,-RA,0.08,VWS V14.01,2013-06-29 20:11:00,
2013-06-29 15:16:00,70.0,56.4,29.80,NE,55,1.0,10.0,62,0.00,,BKN085,0.08,VWS V14.01,2013-06-29 20:16:00,
2013-06-29 15:21:00,70.5,57.8,29.80,North,9,3.0,10.0,64,0.00,,BKN085,0.08,VWS V14.01,2013-06-29 20:21:00,
2013-06-29 15:26:00,70.4,56.3,29.80,North,6,2.0,10.0,61,0.00,,BKN085,0.08,VWS V14.01,2013-06-29 20:26:00,
2013-06-29 15:30:00,70.7,56.6,29.80,ENE,65,4.0,10.0,61,0.00,,OVC090,0.08,VWS V14.01,2013-06-29 20:30:00,
2013-06-29 15:31:00,70.7,56.6,29.80,ENE,70,5.0,5.0,61,0.00,,BKN085,0.08,VWS V14.01,2013-06-29 20:31:00,
2013-06-29 15:36:00,71.0,56.0,29.80,NW,319,4.0,8.0,59,0.00,,BKN085,0.08,VWS V14.01,2013-06-29 20:36:00,
2013-06-29 15:41:00,71.1,56.5,29.80,NNW,329,2.0,9.0,60,0.00,,BKN085,0.08,VWS V14.01,2013-06-29 20:41:00,
2013-06-29 15:46:00,71.3,56.2,29.80,NNW,340,2.0,16.0,59,0.00,,BKN085,0.08,VWS V14.01,2013-06-29 20:46:00,
2013-06-29 15:51:00,71.5,56.0,29.80,NNW,347,4.0,16.0,58,0.00,,BKN085,0.08,VWS V14.01,2013-06-29 20:51:00,
2013-06-29 15:56:00,71.7,56.6,29.80,NE,44,5.0,16.0,59,0.00,,BKN085,0.08,VWS V14.01,2013-06-29 20:56:00,
2013-06-29 16:00:00,71.9,58.2,29.80,NE,51,3.0,16.0,62,0.00,,OVC090,0.08,VWS V14.01,2013-06-29 21:00:00,
2013-06-29 16:01:00,71.9,56.8,29.80,NNE,29,0.0,3.0,59,0.00,,BKN085,0.08,VWS V14.01,2013-06-29 21:01:00,
2013-06-29 16:06:00,71.3,56.2,29.80,WSW,254,4.0,12.0,59,0.00,,SCT080,0.08,VWS V14.01,2013-06-29 21:06:00,
2013-06-29 16:11:00,71.6,57.5,29.80,North,356,4.0,12.0,61,0.00,,SCT080,0.08,VWS V14.01,2013-06-29 21:11:00,
2013-06-29 16:16:00,71.8,56.7,29.80,NNE,29,5.0,12.0,59,0.00,,SCT080,0.08,VWS V14.01,2013-06-29 21:16:00,
2013-06-29 16:21:00,72.1,57.5,29.80,North,6,0.0,12.0,60,0.00,,SCT080,0.08,VWS V14.01,2013-06-29 21:21:00,
2013-06-29 16:26:00,71.8,58.1,29.80,ENE,58,2.0,12.0,62,0.00,,SCT080,0.08,VWS V14.01,2013-06-29 21:26:00,
2013-06-29 16:30:00,71.5,57.8,29.80,NNE,28,0.0,12.0,62,0.00,,OVC090,0.08,VWS V14.01,2013-06-29 21:30:00,
2013-06-29 16:31:00,71.5,57.8,29.80,NNW,327,2.0,4.0,62,0.00,,SCT080,0.08,VWS V14.01,2013-06-29 21:31:00,
2013-06-29 16:36:00,71.0,57.3,29.81,NE,51,6.0,8.0,62,0.00,,SCT080,0.08,VWS V14.01,2013-06-29 21:36:00,
2013-06-29 16:41:00,70.6,57.4,29.80,NNE,25,2.0,8.0,63,0.00,,SCT080,0.08,VWS V14.01,2013-06-29 21:41:00,
2013-06-29 16:46:00,71.1,58.3,29.81,NW,322,4.0,12.0,64,0.00,,SCT080,0.08,VWS V14.01,2013-06-29 21:46:00,
2013-06-29 16:51:00,70.8,57.2,29.81,NE,56,0.0,12.0,62,0.00,,SCT080,0.08,VWS V14.01,2013-06-29 21:51:00,
2013-06-29 16:56:00,70.6,57.0,29.81,NNE,23,0.0,12.0,62,0.00,,SCT080,0.08,VWS V14.01,2013-06-29 21:56:00,
2013-06-29 17:00:00,70.5,57.3,29.81,NNW,345,0.0,12.0,63,0.00,,OVC090,0.08,VWS V14.01,2013-06-29 22:00:00,
2013-06-29 17:01:00,70.5,56.9,29.81,ENE,58,3.0,3.0,62,0.00,,FEW040,0.08,VWS V14.01,2013-06-29 22:01:00,
2013-06-29 17:06:00,70.6,57.4,29.81,NE,40,1.0,3.0,63,0.00,,FEW040,0.08,VWS V14.01,2013-06-29 22:06:00,
2013-06-29 17:11:00,70.7,57.9,29.81,NNE,19,2.0,8.0,64,0.00,,FEW040,0.08,VWS V14.01,2013-06-29 22:11:00,
2013-06-29 17:16:00,70.7,57.9,29.81,ENE,68,1.0,8.0,64,0.00,,FEW040,0.08,VWS V14.01,2013-06-29 22:16:00,
2013-06-29 17:21:00,70.7,57.5,29.81,NE,41,2.0,9.0,63,0.00,,FEW040,0.08,VWS V14.01,2013-06-29 22:21:00,
2013-06-29 17:26:00,70.7,57.9,29.81,ENE,65,3.0,10.0,64,0.00,,FEW040,0.08,VWS V14.01,2013-06-29 22:26:00,
2013-06-29 17:30:00,70.9,58.1,29.81,NNE,32,3.0,10.0,64,0.00,,OVC090,0.08,VWS V14.01,2013-06-29 22:30:00,
2013-06-29 17:31:00,70.9,58.1,29.81,WNW,297,2.0,3.0,64,0.00,,FEW040,0.08,VWS V14.01,2013-06-29 22:31:00,
2013-06-29 17:36:00,70.4,57.2,29.82,NE,39,2.0,8.0,63,0.00,,FEW040,0.08,VWS V14.01,2013-06-29 22:36:00,
2013-06-29 17:41:00,69.6,57.3,29.81,ENE,63,0.0,10.0,65,0.00,,FEW040,0.08,VWS V14.01,2013-06-29 22:41:00,
2013-06-29 17:46:00,69.0,57.2,29.81,NNE,13,1.0,10.0,66,0.00,,FEW040,0.08,VWS V14.01,2013-06-29 22:46:00,
2013-06-29 17:51:00,68.7,57.7,29.81,NNW,344,3.0,10.0,68,0.00,,FEW040,0.08,VWS V14.01,2013-06-29 22:51:00,
2013-06-29 17:56:00,68.7,58.1,29.81,NNW,337,2.0,10.0,69,0.00,,FEW040,0.08,VWS V14.01,2013-06-29 22:56:00,
2013-06-29 18:00:00,68.6,57.2,29.81,NE,46,0.0,10.0,67,0.00,,OVC090,0.08,VWS V14.01,2013-06-29 23:00:00,
2013-06-29 18:01:00,68.6,57.2,29.82,NW,325,2.0,2.0,67,0.00,,BKN110,0.08,VWS V14.01,2013-06-29 23:01:00,
2013-06-29 18:06:00,68.5,57.9,29.81,NNW,335,6.0,6.0,69,0.00,,BKN110,0.08,VWS V14.01,2013-06-29 23:06:00,
2013-06-29 18:11:00,68.5,57.9,29.81,NE,36,0.0,8.0,69,0.00,,BKN110,0.08,VWS V14.01,2013-06-29 23:11:00,
2013-06-29 18:16:00,68.6,58.4,29.82,NNE,32,0.0,8.0,70,0.00,,BKN110,0.08,VWS V14.01,2013-06-29 23:16:00,
2013-06-29 18:21:00,68.8,59.0,29.82,NNW,345,0.0,8.0,71,0.00,,BKN110,0.08,VWS V14.01,2013-06-29 23:21:00,
2013-06-29 18:26:00,68.9,58.7,29.82,North,5,2.0,8.0,70,0.00,,BKN110,0.08,VWS V14.01,2013-06-29 23:26:00,
2013-06-29 18:30:00,69.1,58.9,29.82,NNE,23,2.0,8.0,70,0.00,,FEW075,0.08,VWS V14.01,2013-06-29 23:30:00,
2013-06-29 18:31:00,69.1,58.9,29.82,North,5,3.0,3.0,70,0.00,,BKN110,0.08,VWS V14.01,2013-06-29 23:31:00,
2013-06-29 18:36:00,69.2,58.6,29.82,NE,41,4.0,6.0,69,0.00,,BKN110,0.08,VWS V14.01,2013-06-29 23:36:00,
2013-06-29 18:41:00,69.3,58.7,29.82,ENE,57,1.0,6.0,69,0.00,,BKN110,0.08,VWS V14.01,2013-06-29 23:41:00,
2013-06-29 18:46:00,69.1,58.9,29.82,NE,50,1.0,8.0,70,0.00,,BKN110,0.08,VWS V14.01,2013-06-29 23:46:00,
2013-06-29 18:51:00,69.1,58.9,29.82,NE,43,0.0,8.0,70,0.00,,BKN110,0.08,VWS V14.01,2013-06-29 23:51:00,
2013-06-29 18:56:00,69.1,58.5,29.82,NNE,12,1.0,8.0,69,0.00,,BKN110,0.08,VWS V14.01,2013-06-29 23:56:00,
2013-06-29 19:00:00,69.0,58.8,29.82,North,352,0.0,8.0,70,0.00,,OVC090,0.08,VWS V14.01,2013-06-30 00:00:00,
2013-06-29 19:01:00,69.0,58.8,29.82,North,356,1.0,1.0,70,0.00,,OVC100,0.08,VWS V14.01,2013-06-30 00:01:00,
2013-06-29 19:06:00,69.2,58.6,29.82,NNW,344,4.0,9.0,69,0.00,,OVC100,0.08,VWS V14.01,2013-06-30 00:06:00,
2013-06-29 19:11:00,69.2,59.0,29.82,NNE,18,1.0,10.0,70,0.00,,OVC100,0.08,VWS V14.01,2013-06-30 00:11:00,
2013-06-29 19:16:00,69.2,59.0,29.82,NNW,345,2.0,10.0,70,0.00,,OVC100,0.08,VWS V14.01,2013-06-30 00:16:00,
2013-06-29 19:21:00,69.1,58.5,29.83,NE,53,0.0,10.0,69,0.00,,OVC100,0.08,VWS V14.01,2013-06-30 00:21:00,
2013-06-29 19:26:00,69.0,58.8,29.82,NNE,26,4.0,10.0,70,0.00,,OVC100,0.08,VWS V14.01,2013-06-30 00:26:00,
2013-06-29 19:30:00,68.9,58.7,29.83,NE,47,0.0,10.0,70,0.00,,OVC090,0.08,VWS V14.01,2013-06-30 00:30:00,
2013-06-29 19:31:00,68.9,58.7,29.83,NNW,345,1.0,1.0,70,0.00,,OVC100,0.08,VWS V14.01,2013-06-30 00:31:00,
2013-06-29 19:36:00,68.8,59.0,29.83,East,94,0.0,1.0,71,0.00,,OVC100,0.08,VWS V14.01,2013-06-30 00:36:00,
2013-06-29 19:41:00,68.7,59.3,29.83,NE,44,2.0,2.0,72,0.00,,OVC100,0.08,VWS V14.01,2013-06-30 00:41:00,
2013-06-29 19:46:00,68.6,59.6,29.83,NE,55,2.0,6.0,73,0.00,,OVC100,0.08,VWS V14.01,2013-06-30 00:46:00,
2013-06-29 19:51:00,68.3,60.1,29.84,NNE,32,0.0,6.0,75,0.00,,OVC100,0.08,VWS V14.01,2013-06-30 00:51:00,
2013-06-29 19:56:00,67.8,60.0,29.84,NNE,30,0.0,6.0,76,0.00,,OVC100,0.08,VWS V14.01,2013-06-30 00:56:00,
2013-06-29 20:00:00,67.4,59.6,29.84,ENE,62,0.0,6.0,76,0.00,,OVC090,0.08,VWS V14.01,2013-06-30 01:00:00,
2013-06-29 20:01:00,67.4,59.6,29.84,ENE,62,0.0,0.0,76,0.00,,OVC100,0.08,VWS V14.01,2013-06-30 01:01:00,
2013-06-29 20:06:00,67.2,59.8,29.84,ENE,60,0.0,1.0,77,0.00,,OVC090,0.08,VWS V14.01,2013-06-30 01:06:00,
2013-06-29 20:11:00,67.0,59.6,29.84,NNW,340,0.0,2.0,77,0.00,,OVC090,0.08,VWS V14.01,2013-06-30 01:11:00,
2013-06-29 20:16:00,66.9,59.8,29.84,NNW,340,0.0,2.0,78,0.00,,OVC090,0.08,VWS V14.01,2013-06-30 01:16:00,
2013-06-29 20:21:00,66.7,59.3,29.84,NNE,23,0.0,3.0,77,0.00,,OVC090,0.08,VWS V14.01,2013-06-30 01:21:00,
2013-06-29 20:26:00,66.6,59.2,29.84,North,356,0.0,3.0,77,0.00,,OVC090,0.08,VWS V14.01,2013-06-30 01:26:00,
2013-06-29 20:30:00,66.5,59.1,29.84,NE,46,0.0,3.0,77,0.00,,OVC090,0.08,VWS V14.01,2013-06-30 01:30:00,
2013-06-29 20:31:00,66.5,59.1,29.84,NE,46,0.0,0.0,77,0.00,,OVC090,0.08,VWS V14.01,2013-06-30 01:31:00,
2013-06-29 20:36:00,66.3,58.9,29.84,NNE,17,1.0,5.0,77,0.00,,OVC090,0.08,VWS V14.01,2013-06-30 01:36:00,
2013-06-29 20:41:00,66.2,58.8,29.84,NNE,17,0.0,5.0,77,0.00,,OVC090,0.08,VWS V14.01,2013-06-30 01:41:00,
2013-06-29 20:46:00,66.1,58.7,29.84,NNE,25,1.0,5.0,77,0.00,,OVC090,0.08,VWS V14.01,2013-06-30 01:46:00,
2013-06-29 20:51:00,66.1,58.7,29.85,NE,36,0.0,5.0,77,0.00,,OVC090,0.08,VWS V14.01,2013-06-30 01:51:00,
2013-06-29 20:56:00,66.0,58.6,29.85,North,3,0.0,5.0,77,0.00,,OVC090,0.08,VWS V14.01,2013-06-30 01:56:00,
2013-06-29 21:00:00,66.0,59.0,29.85,North,4,0.0,5.0,78,0.00,,OVC090,0.08,VWS V14.01,2013-06-30 02:00:00,
2013-06-29 21:01:00,66.0,59.0,29.85,North,4,0.0,0.0,78,0.00,,OVC090,0.08,VWS V14.01,2013-06-30 02:01:00,
2013-06-29 21:06:00,65.8,58.8,29.85,NE,51,1.0,1.0,78,0.00,,OVC090,0.08,VWS V14.01,2013-06-30 02:06:00,
2013-06-29 21:11:00,65.6,58.6,29.85,North,7,1.0,2.0,78,0.00,,OVC090,0.08,VWS V14.01,2013-06-30 02:11:00,
2013-06-29 21:16:00,65.5,58.5,29.85,NE,36,0.0,2.0,78,0.00,,OVC090,0.08,VWS V14.01,2013-06-30 02:16:00,
2013-06-29 21:21:00,65.4,58.7,29.85,NNE,17,0.0,2.0,79,0.00,,OVC090,0.08,VWS V14.01,2013-06-30 02:21:00,
2013-06-29 21:26:00,65.4,58.7,29.86,NNW,334,0.0,2.0,79,0.00,,OVC090,0.08,VWS V14.01,2013-06-30 02:26:00,
2013-06-29 21:30:00,65.3,58.6,29.86,NE,47,0.0,2.0,79,0.00,,OVC090,0.08,VWS V14.01,2013-06-30 02:30:00,
2013-06-29 21:31:00,65.3,58.6,29.86,NE,46,0.0,0.0,79,0.00,,OVC090,0.08,VWS V14.01,2013-06-30 02:31:00,
2013-06-29 21:36:00,65.2,58.5,29.86,NE,46,0.0,0.0,79,0.00,,OVC090,0.08,VWS V14.01,2013-06-30 02:36:00,
2013-06-29 21:41:00,65.1,58.8,29.86,NNE,25,0.0,2.0,80,0.00,,OVC090,0.08,VWS V14.01,2013-06-30 02:41:00,
2013-06-29 21:46:00,65.0,58.3,29.86,East,80,0.0,2.0,79,0.00,,OVC090,0.08,VWS V14.01,2013-06-30 02:46:00,
2013-06-29 21:51:00,64.8,58.1,29.86,NE,40,0.0,2.0,79,0.00,,OVC090,0.08,VWS V14.01,2013-06-30 02:51:00,
2013-06-29 21:56:00,64.7,58.0,29.86,NE,39,0.0,2.0,79,0.00,,OVC090,0.08,VWS V14.01,2013-06-30 02:56:00,
2013-06-29 22:00:00,64.5,57.8,29.87,North,349,0.0,2.0,79,0.00,,FEW075,0.08,VWS V14.01,2013-06-30 03:00:00,
2013-06-29 22:01:00,64.5,57.8,29.87,NNW,348,0.0,0.0,79,0.00,,OVC090,0.08,VWS V14.01,2013-06-30 03:01:00,
2013-06-29 22:06:00,64.4,58.1,29.87,North,5,0.0,0.0,80,0.00,,OVC090,0.08,VWS V14.01,2013-06-30 03:06:00,
2013-06-29 22:11:00,64.3,58.3,29.87,NNW,333,1.0,2.0,81,0.00,,OVC090,0.08,VWS V14.01,2013-06-30 03:11:00,
2013-06-29 22:16:00,64.1,58.2,29.87,North,6,0.0,2.0,81,0.00,,OVC090,0.08,VWS V14.01,2013-06-30 03:16:00,
2013-06-29 22:21:00,64.1,58.2,29.87,North,7,0.0,2.0,81,0.00,,OVC090,0.08,VWS V14.01,2013-06-30 03:21:00,
2013-06-29 22:26:00,64.1,58.2,29.87,North,356,0.0,2.0,81,0.00,,OVC090,0.08,VWS V14.01,2013-06-30 03:26:00,
2013-06-29 22:30:00,64.0,58.4,29.88,ENE,61,0.0,2.0,82,0.00,,FEW075,0.08,VWS V14.01,2013-06-30 03:30:00,
2013-06-29 22:31:00,64.0,58.4,29.88,ENE,61,0.0,0.0,82,0.00,,OVC090,0.08,VWS V14.01,2013-06-30 03:31:00,
2013-06-29 22:36:00,63.9,58.0,29.88,NNW,347,0.0,2.0,81,0.00,,OVC090,0.08,VWS V14.01,2013-06-30 03:36:00,
2013-06-29 22:41:00,63.8,57.9,29.88,North,356,0.0,2.0,81,0.00,,OVC090,0.08,VWS V14.01,2013-06-30 03:41:00,
2013-06-29 22:46:00,63.8,57.9,29.88,NE,34,0.0,4.0,81,0.00,,OVC090,0.08,VWS V14.01,2013-06-30 03:46:00,
2013-06-29 22:51:00,63.9,57.6,29.88,NNE,21,0.0,4.0,80,0.00,,OVC090,0.08,VWS V14.01,2013-06-30 03:51:00,
2013-06-29 22:56:00,64.1,57.8,29.88,NNE,19,1.0,4.0,80,0.00,,OVC090,0.08,VWS V14.01,2013-06-30 03:56:00,
2013-06-29 23:00:00,64.1,57.8,29.88,North,354,2.0,2.0,80,0.00,,FEW075,0.08,VWS V14.01,2013-06-30 04:00:00,
2013-06-29 23:01:00,64.1,57.8,29.88,NW,306,3.0,3.0,80,0.00,,FEW075,0.08,VWS V14.01,2013-06-30 04:01:00,
2013-06-29 23:06:00,64.0,57.7,29.88,North,351,3.0,4.0,80,0.00,,FEW075,0.08,VWS V14.01,2013-06-30 04:06:00,
2013-06-29 23:11:00,64.0,57.4,29.88,NNW,343,0.0,5.0,79,0.00,,FEW075,0.08,VWS V14.01,2013-06-30 04:11:00,
2013-06-29 23:16:00,63.9,57.3,29.88,NNW,341,0.0,5.0,79,0.00,,FEW075,0.08,VWS V14.01,2013-06-30 04:16:00,
2013-06-29 23:21:00,63.9,57.3,29.88,NNW,345,1.0,5.0,79,0.00,,FEW075,0.08,VWS V14.01,2013-06-30 04:21:00,
2013-06-29 23:29:00,63.8,57.2,29.88,North,350,3.0,3.0,79,0.00,,FEW075,0.08,VWS V14.01,2013-06-30 04:29:00,
2013-06-29 23:30:00,64.0,58.4,29.88,ENE,61,0.0,2.0,82,0.00,,,0.08,VWS V14.01,2013-06-30 04:30:00,
2013-06-29 23:34:00,63.8,57.5,29.88,North,356,0.0,5.0,80,0.00,,FEW075,0.08,VWS V14.01,2013-06-30 04:34:00,
2013-06-29 23:39:00,63.7,57.4,29.88,North,5,0.0,5.0,80,0.00,,FEW075,0.08,VWS V14.01,2013-06-30 04:39:00,
2013-06-29 23:44:00,63.6,57.3,29.88,NE,36,0.0,5.0,80,0.00,,FEW075,0.08,VWS V14.01,2013-06-30 04:44:00,
2013-06-29 23:49:00,63.5,57.2,29.88,ENE,58,0.0,5.0,80,0.00,,FEW075,0.08,VWS V14.01,2013-06-30 04:49:00,
2013-06-29 23:54:00,63.4,57.1,29.88,North,6,0.0,5.0,80,0.00,,FEW075,0.08,VWS V14.01,2013-06-30 04:54:00,
2013-06-29 23:59:00,63.2,57.3,29.88,North,6,0.0,5.0,81,0.00,,FEW075,0.08,VWS V14.01,2013-06-30 04:59:00,